Location: Enborne
(51.3833°N, 1.3667°W)
Time: 04:53:31
(UTC+00:00)

MOS 1 Rocket - Pass Details

Date: 18 September 2020
Orbit: 614 x 831 km, 97.4° (Epoch: 20 October)

Event Time Altitude Azimuth Distance (km) Brightness Sun altitude
Rises 18:56:25 0° 17° (NNE) 3,048 6.6 -7.7°
Reaches altitude 10° 18:58:48 10° 23° (NNE) 2,096 5.7 -8.1°
Maximum altitude 19:03:11 47° 98° (E) 857 3.4 -8.7°
Drops below altitude 10° 19:07:21 10° 172° (S) 1,994 5.4 -9.4°
Sets 19:09:34 0° 179° (S) 2,882 6.3 -9.7°
